| time (UTC) | temp F | wind direction | speed MPH | gust MPH | rain 1hr in | rain 24hr in | rain mn in | humidity % | barometer mb |
| 20260504100142 | 65 | 350 | 3.0 | 5.0 | 0.00 | 0.00 | 0.00 | 88 | 1015.4 |
| 20260504090120 | 67 | 5 | 4.0 | 8.0 | 0.00 | 0.00 | 0.00 | 83 | 1015.3 |
| 20260504081558 | 68 | 28 | 4.0 | 8.0 | 0.00 | 0.00 | 0.00 | 84 | 1015.4 |
| 20260504080118 | 68 | 350 | 3.0 | 9.0 | 0.00 | 0.00 | 0.00 | 84 | 1015.6 |
| 20260504070119 | 67 | 356 | 3.0 | 5.0 | 0.00 | 0.00 | 0.00 | 84 | 1015.5 |
| 20260504060107 | 68 | 34 | 3.0 | 7.0 | 0.00 | 0.00 | 0.00 | 81 | 1015.6 |
| 20260504044059 | 69 | 52 | 2.0 | 5.0 | 0.00 | 0.00 | 0.00 | 82 | 1017.1 |
| 20260504043100 | 69 | 52 | 2.0 | 5.0 | 0.00 | 0.00 | 0.00 | 81 | 1017.1 |
| 20260504042103 | 69 | 52 | 2.0 | 4.0 | 0.00 | 0.00 | 0.00 | 81 | 1017.1 |
| 20260504041053 | 69 | 52 | 3.0 | 5.0 | 0.00 | 0.00 | 0.00 | 80 | 1017.1 |
| 20260504040531 | 70 | 52 | 2.0 | 4.0 | 0.00 | 0.00 | 0.00 | 79 | 1017.1 |
| 20260504035057 | 69 | 54 | 3.0 | 5.0 | 0.00 | 0.00 | 0.12 | 80 | 1017.2 |
| 20260504034053 | 69 | 54 | 3.0 | 4.0 | 0.00 | 0.00 | 0.12 | 80 | 1017.1 |
| 20260504033056 | 69 | 55 | 2.0 | 4.0 | 0.00 | 0.00 | 0.12 | 80 | 1017.1 |
| 20260504032058 | 69 | 55 | 1.0 | 4.0 | 0.00 | 0.00 | 0.12 | 80 | 1017.3 |
| 20260504031053 | 69 | 55 | 2.0 | 4.0 | 0.00 | 0.00 | 0.12 | 80 | 1017.1 |
| 20260504031016 | 69 | 55 | 2.0 | 4.0 | 0.00 | 0.00 | 0.12 | 80 | 1017.1 |
| 20260504025051 | 70 | 55 | 2.0 | 1.0 | 0.00 | 0.00 | 0.12 | 79 | 1017.0 |
| 20260504023934 | 70 | 55 | 2.0 | 3.0 | 0.00 | 0.12 | 0.12 | 79 | 1017.2 |
| 20260504023414 | 70 | 55 | 1.0 | 2.0 | 0.00 | 0.12 | 0.12 | 79 | 1017.1 |
| 20260504021926 | 70 | 55 | 1.0 | 3.0 | 0.00 | 0.12 | 0.12 | 78 | 1016.9 |
| 20260504020930 | 71 | 55 | 2.0 | 4.0 | 0.00 | 0.12 | 0.12 | 77 | 1016.9 |
| 20260504020841 | 71 | 55 | 1.0 | 3.0 | 0.00 | 0.12 | 0.12 | 77 | 1016.8 |
| 20260504014908 | 71 | 55 | 3.0 | 7.0 | 0.00 | 0.12 | 0.12 | 76 | 1016.7 |
| 20260504013908 | 71 | 56 | 3.0 | 7.0 | 0.00 | 0.12 | 0.12 | 75 | 1016.7 |
| 20260504012910 | 72 | 51 | 3.0 | 6.0 | 0.00 | 0.12 | 0.12 | 75 | 1016.8 |
| 20260504011907 | 72 | 51 | 3.0 | 6.0 | 0.00 | 0.12 | 0.12 | 75 | 1016.7 |
| 20260504010907 | 72 | 55 | 3.0 | 6.0 | 0.00 | 0.12 | 0.12 | 75 | 1016.6 |
| 20260504005902 | 72 | 55 | 3.0 | 10.0 | 0.00 | 0.12 | 0.12 | 75 | 1016.4 |
| 20260504004901 | 72 | 54 | 4.0 | 9.0 | 0.00 | 0.12 | 0.12 | 74 | 1016.2 |
| 20260504003902 | 72 | 63 | 3.0 | 11.0 | 0.00 | 0.12 | 0.12 | 73 | 1016.1 |
| 20260504002848 | 72 | 65 | 3.0 | 6.0 | 0.00 | 0.12 | 0.12 | 73 | 1016.1 |
| 20260504001848 | 73 | 36 | 4.0 | 8.0 | 0.00 | 0.12 | 0.12 | 72 | 1016.1 |
| 20260504000846 | 73 | 56 | 4.0 | 9.0 | 0.00 | 0.12 | 0.12 | 71 | 1015.9 |
| 20260503235847 | 73 | 66 | 4.0 | 8.0 | 0.00 | 0.12 | 0.12 | 71 | 1015.8 |
| 20260503234854 | 74 | 81 | 3.0 | 8.0 | 0.00 | 0.12 | 0.12 | 70 | 1015.7 |
| 20260503233848 | 74 | 55 | 4.0 | 10.0 | 0.00 | 0.12 | 0.12 | 71 | 1015.8 |
| 20260503233322 | 74 | 56 | 4.0 | 9.0 | 0.00 | 0.12 | 0.12 | 70 | 1015.7 |
| 20260503232339 | 74 | 58 | 4.0 | 11.0 | 0.00 | 0.12 | 0.12 | 70 | 1015.7 |
| 20260503230846 | 75 | 59 | 5.0 | 10.0 | 0.00 | 0.13 | 0.12 | 69 | 1015.6 |
| 20260503225847 | 75 | 70 | 4.0 | 12.0 | 0.00 | 0.13 | 0.12 | 68 | 1015.6 |
| 20260503224845 | 76 | 50 | 4.0 | 9.0 | 0.00 | 0.13 | 0.12 | 68 | 1015.7 |
| 20260503223845 | 76 | 10 | 5.0 | 12.0 | 0.00 | 0.13 | 0.12 | 69 | 1015.6 |
| 20260503222846 | 76 | 50 | 3.0 | 9.0 | 0.00 | 0.13 | 0.12 | 68 | 1015.5 |
| 20260503221844 | 76 | 76 | 4.0 | 10.0 | 0.00 | 0.13 | 0.12 | 68 | 1015.5 |
| 20260503220846 | 76 | 20 | 4.0 | 11.0 | 0.00 | 0.13 | 0.12 | 69 | 1015.6 |
| 20260503215844 | 76 | 34 | 4.0 | 9.0 | 0.00 | 0.14 | 0.12 | 69 | 1015.5 |
| 20260503215412 | 76 | 70 | 4.0 | 10.0 | 0.00 | 0.14 | 0.12 | 69 | 1015.5 |
| 20260503215258 | 76 | 94 | 4.0 | 11.0 | 0.00 | 0.16 | 0.12 | 68 | 1015.3 |
| 20260503215107 | 76 | 79 | 4.0 | 14.0 | 0.00 | 0.16 | 0.12 | 67 | 1015.3 |
| 20260503205845 | 77 | 84 | 5.0 | 12.0 | 0.00 | 0.17 | 0.12 | 66 | 1015.4 |
| 20260503204846 | 77 | 22 | 6.0 | 13.0 | 0.00 | 0.17 | 0.12 | 65 | 1015.5 |
| 20260503203845 | 78 | 54 | 5.0 | 13.0 | 0.00 | 0.17 | 0.12 | 65 | 1015.6 |
| 20260503203315 | 79 | 78 | 5.0 | 11.0 | 0.00 | 0.17 | 0.12 | 62 | 1015.5 |
| 20260503201840 | 79 | 38 | 5.0 | 10.0 | 0.00 | 0.18 | 0.12 | 65 | 1015.5 |
| 20260503200838 | 79 | 82 | 5.0 | 12.0 | 0.00 | 0.18 | 0.12 | 65 | 1015.7 |
| 20260503195839 | 81 | 88 | 5.0 | 12.0 | 0.00 | 0.18 | 0.12 | 60 | 1015.8 |
| 20260503194839 | 80 | 327 | 6.0 | 13.0 | 0.00 | 0.18 | 0.12 | 63 | 1015.8 |
| 20260503194753 | 79 | 10 | 5.0 | 12.0 | 0.00 | 0.18 | 0.12 | 64 | 1016.1 |
| 20260503192834 | 80 | 92 | 4.0 | 11.0 | 0.00 | 0.18 | 0.12 | 63 | 1016.2 |
| 20260503191832 | 81 | 100 | 6.0 | 11.0 | 0.00 | 0.18 | 0.12 | 62 | 1016.3 |
| 20260503190834 | 81 | 356 | 5.0 | 11.0 | 0.00 | 0.18 | 0.12 | 61 | 1016.6 |
| 20260503185835 | 79 | 57 | 5.0 | 14.0 | 0.00 | 0.18 | 0.12 | 66 | 1016.8 |
| 20260503184819 | 80 | 91 | 7.0 | 15.0 | 0.00 | 0.18 | 0.12 | 66 | 1016.9 |
| 20260503183819 | 79 | 5 | 6.0 | 12.0 | 0.00 | 0.18 | 0.12 | 66 | 1017.0 |
| 20260503182818 | 79 | 15 | 6.0 | 13.0 | 0.00 | 0.18 | 0.12 | 70 | 1017.1 |
| 20260503182307 | 78 | 5 | 6.0 | 13.0 | 0.00 | 0.18 | 0.12 | 69 | 1017.2 |
| 20260503180820 | 78 | 42 | 5.0 | 12.0 | 0.00 | 0.18 | 0.12 | 69 | 1017.4 |
| 20260503175813 | 77 | 65 | 5.0 | 12.0 | 0.00 | 0.18 | 0.12 | 69 | 1017.5 |
| 20260503174812 | 76 | 96 | 5.0 | 10.0 | 0.00 | 0.18 | 0.12 | 72 | 1017.7 |
| 20260503174253 | 75 | 31 | 6.0 | 13.0 | 0.00 | 0.18 | 0.12 | 73 | 1017.7 |
| 20260503172814 | 75 | 5 | 5.0 | 10.0 | 0.00 | 0.18 | 0.12 | 74 | 1017.8 |
| 20260503171759 | 74 | 19 | 6.0 | 14.0 | 0.00 | 0.18 | 0.12 | 73 | 1017.8 |
| 20260503170756 | 74 | 15 | 6.0 | 13.0 | 0.00 | 0.18 | 0.12 | 74 | 1017.6 |
| 20260503150725 | 69 | 52 | 3.0 | 10.0 | 0.00 | 0.18 | 0.12 | 86 | 1018.3 |
| 20260503130653 | 66 | 46 | 6.0 | 14.0 | 0.00 | 0.18 | 0.12 | 91 | 1016.9 |
| 20260503110634 | 65 | 20 | 5.0 | 11.0 | 0.00 | 0.18 | 0.12 | 95 | 1015.6 |